This is the latest recevied weather packets stored in our database for station/object AI5BL. If no packets are shown the sender has not sent any weather packets the latest 1 day(s).
| Time | Temp. | Humidity | Pressure | Rain* | Wind** | Luminosity | Snow |
|---|---|---|---|---|---|---|---|
| 1778033800 | 22.22° C | 82% | 1014.7 hPa | 0 mm | - | 0 W/m² | - |
| 1778033496 | 22.22° C | 81% | 1014.7 hPa | 0 mm | - | 0 W/m² | - |
| 1778033193 | 22.22° C | 83% | 1014.6 hPa | 0 mm | - | 0 W/m² | - |
| 1778032589 | 22.78° C | 81% | 1014.7 hPa | 0 mm | - | 0 W/m² | - |
| 1778032285 | 22.78° C | 80% | 1014.7 hPa | 0 mm | - | 0 W/m² | - |
| 1778031983 | 22.78° C | 80% | 1014.5 hPa | 0 mm | - | 0 W/m² | - |
| 1778031678 | 22.78° C | 80% | 1014.6 hPa | 0 mm | - | 0 W/m² | - |
| 1778031377 | 22.78° C | 79% | 1014.3 hPa | 0 mm | - | 0 W/m² | - |
| 1778030769 | 22.78° C | 78% | 1014.3 hPa | 0 mm | - | 0 W/m² | - |
| 1778030466 | 22.78° C | 77% | 1014.4 hPa | 0 mm | - | 0 W/m² | - |
| 1778030164 | 22.78° C | 77% | 1014.1 hPa | 0 mm | - | 0 W/m² | - |
| 1778029554 | 22.78° C | 79% | 1014.1 hPa | 0 mm | - | 0 W/m² | - |
| 1778028947 | 23.33° C | 77% | 1013.8 hPa | 0 mm | - | 0 W/m² | - |
| 1778028643 | 23.33° C | 77% | 1013.7 hPa | 0 mm | - | 0 W/m² | - |
| 1778028341 | 23.33° C | 76% | 1013.8 hPa | 0 mm | - | 0 W/m² | - |
| 1778028037 | 23.33° C | 78% | 1013.7 hPa | 0 mm | - | 1 W/m² | - |
| 1778027126 | 23.33° C | 75% | 1013.8 hPa | 0 mm | - | 4 W/m² | - |
| 1778026518 | 23.89° C | 76% | 1013.6 hPa | 0 mm | - | 13 W/m² | - |
| 1778024702 | 24.44° C | 74% | 1013.7 hPa | 0 mm | - | 33 W/m² | - |
| 1778024096 | 24.44° C | 74% | 1013.8 hPa | 0 mm | - | 37 W/m² | - |
| 1778023188 | 25° C | 72% | 1014.3 hPa | 0 mm | - | 56 W/m² | - |
| 1778021370 | 25° C | 71% | 1013.7 hPa | 0 mm | - | 107 W/m² | - |
| 1778019854 | 25° C | 71% | 1013.7 hPa | 0 mm | - | 92 W/m² | - |
| 1778019550 | 25.56° C | 72% | 1013.8 hPa | 0 mm | - | 90 W/m² | - |
| 1778018641 | 25.56° C | 69% | 1013.5 hPa | 0 mm | - | 141 W/m² | - |
* Rain latest hour (hover to see other rain measurements)
** Current wind speed in m/s (hover to see current wind gust speed)